Regional Weather Roundup
Issued by NWS

Home | Current Version | Previous Version | Text Only | Print | Product List | Glossary Off
Versions: 1 2 3 4 5 6 7 8 9 10 11 12 13 14 15 16 17 18 19 20 21 22 23 24 25 26 27 28 29 30 31 32 33 34 35 36 37 38 39 40 41 42 43 44 45 46 47 48 49 50

548
ASUS43 KFSD 202002
RWRSD

WEATHER ROUNDUP FOR SOUTH DAKOTA
NATIONAL WEATHER SERVICE SIOUX FALLS SD
300 PM CDT THU JUL 20 2017

NOTE: "FAIR" INDICATES FEW OR NO CLOUDS BELOW 12,000 FEET WITH NO
SIGNIFICANT WEATHER AND/OR OBSTRUCTIONS TO VISIBILITY.


SDZ001>005-009-010-012>017-202100-
NORTHWEST AND NORTH CENTRAL SOUTH DAKOTA

CITY           SKY/WX    TMP DP  RH WIND       PRES   REMARKS
BUFFALO          N/A     97  59  28 S20G36    29.86F HX  96
FAITH            N/A     96  63  33 SE17G25   29.96F HX  97
MOBRIDGE       SUNNY     92  59  33 SE20      29.95S
$$

SDZ012>016-024>037-041>051-057-063-072>074-202100-
SOUTHWEST AND SOUTH CENTRAL SOUTH DAKOTA

CITY           SKY/WX    TMP DP  RH WIND       PRES   REMARKS
RAPID CTY ARPT SUNNY     97  57  26 S18G26    29.99F HX  96
PIERRE         NOT AVBL
CUSTER         SUNNY     86  50  28 S12       30.18F
PHILIP         MOSUNNY   99  60  27 SE10G18   29.95F HX  99
PINE RIDGE     SUNNY     90  62  39 SE5       30.05F
SPEARFISH      LGT RAIN  97  52  21 SW8G17    30.00F
WINNER         FAIR      96  66  37 VRB6      29.99F HX  99
$$

SDZ004>011-016>023-039-040-202100-
NORTHEAST SOUTH DAKOTA

CITY           SKY/WX    TMP DP  RH WIND       PRES   REMARKS
ABERDEEN       SUNNY     88  66  48 S8        30.00F
WATERTOWN      SUNNY     84  65  52 SE8       30.04F
BROOKINGS      SUNNY     84  66  54 E14       30.04F
SISSETON         N/A     88  64  44 SE13G18   30.00F
$$

SDZ017-020-022-023-036>040-048>070-202100-
SOUTHEAST SOUTH DAKOTA

CITY           SKY/WX    TMP DP  RH WIND       PRES   REMARKS
SIOUX FALLS    CLOUDY    86  72  62 E9        30.01F
HURON          SUNNY     89  64  43 SE13      29.99S
CHAMBERLAIN    MOSUNNY   94  71  46 E13       29.98F HX 100
MITCHELL       SUNNY     88  71  57 SE9       29.99S
YANKTON        PTSUNNY   84  73  69 E7        30.01F
$$

ABBREVIATIONS USED IN REMARKS
   TC - TEMPERATURE IN CELSIUS
  WCI - WIND CHILL INDEX
   HX - HEAT INDEX
  VSB - VISIBILITY





USA.gov is the U.S. government's official web portal to all federal, state and local government web resources and services.